map of BEN home
BEN - Airport
Location
City:  Benghazi, Libyan Arab Jamahiriya (Libya)
Name:Benina International Airport
ICAO:HLLB
IATA:BEN

Details
Type:Airport (Aerodrome, Airfield)
Use:Public/Civil, Military, International (customs port of entry)
Latitude:3205'48"N (32.096786)
Longitude:2016'10"E (20.269472)
Datum:WGS 1984
Elevation:433 ft (132 m)
Variation:3.61E (WMM2015 magnetic declination)
0.09 annual change
Runways:2
Longest:11732 × 148 ft (3576 × 45 m), paved

Time
Time Zone:UTC+2
Local Time:

Weather
METAR:HLLB 220400Z 00000KT 9999 FEW025 25/15 Q1014
TAF:HLLB 211700Z 2118/2218 36012KT 9999 SCT025
BECMG 2200/2202 VRB02KT 8000 NSC
BECMG 2212/2214 36010KT

Related Locations
Nearby:
Farthest:MGS: 11719 mi / 18860 km
Mangaia Island (A'ua'u 'Enua), CK

Find:

   beyond  
but within

Other Information
Maps:
NOTAMs:
Links:
Sources:

  
  • flag of Libyan Arab Jamahiriya (Libya)
  

Sectional Chart

Flight Planning
at skyvector.com

Satellite Image

Google Maps Satellite view

 

Copyright © 2004-2018 Karl L. Swartz. All rights reserved.
The Great Circle Mapper name and logo are trademarks of the Great Circle Mapper.
All other trademarks mentioned herein belong to their respective owners.
Please see credits for attibutions and further copyright information.

  Follow gcmap on Facebook Follow gcmap on Twitter Follow gcmap on Google+ GCmap on LinkedIn

hCard Microformat

Geo Microformat